Content
SEND FEEDBACK

Daily
Averages
Monthly
Summary
United States of America

STERLING, NEBRASKA


Home > North America > United States > Nebraska
Elevation: 360 meters     Latitude: 40 28N     Longitude: 096 23W

WEATHER
 
SELECT A DAY
Number of Records: 429,457;   Date Range: 7/27/95 - 8/28/14
 
SHARE

PRINT THIS DATA

[ ← Previous Day ]
WEATHER ALMANAC - 31 JANUARY, 2013
[ Next Day → ]
[ °F ]   °C
Weather ElementAverageHighLow
Temperature-11.7 °C-7.3 °C (2:35 am)-20.1 °C (10:15 pm)
Dewpoint-16.3 °C-10.4 °C (2:15 am)-23.2 °C (10:15 pm)
Humidity69.5 %87 % (1:35 am)53 % (4:15 pm)
Barometer1022.7 hPa1030.5 hPa (11:55 pm)1013.5 hPa (12:35 am)
Wind Speed18.8 km/h44.4 km/h (10:55 am)
Wind Gust53.8 km/h (10:55 am)
Weather ElementAverage
Visibility15 km
Wind DirectionWNW (281.5 °)

Weather ElementTotal
Precipitation---
Heating Degree Days32.1 (Base 18.3)
Averaged from 71 records on 31 January, 2013
WEATHER CONDITIONS BREAKOUT
WIND DIRECTION BREAKOUT
WEATHER BY HOUR - 31 JANUARY, 2013
[ °F ]   °C
Local TimeTemperatureDewpointHumidityBarometerVisibilityWind DirectionWind SpeedGust SpeedPrecipitationEventsConditions
12:35 AM-9.3 °C-11.3 °C86 %1013.5 hPa16.1 kmCalmMostly Cloudy
12:55 AM-8.9 °C-10.9 °C86 %1013.5 hPa16.1 kmCalmOvercast
1:15 AM-9 °C-11 °C86 %1013.5 hPa16.1 kmNorth (10°)5.6 km/hMostly Cloudy
1:35 AM-9.7 °C-11.5 °C87 %1013.5 hPa16.1 kmCalmMostly Cloudy
1:55 AM-8.3 °C-10.5 °C84 %1013.9 hPa16.1 kmNorth (10°)13 km/hOvercast
2:15 AM-7.4 °C-10.4 °C79 %1013.9 hPa16.1 kmNNE (20°)7.4 km/hOvercast
2:35 AM-7.3 °C-10.6 °C78 %1014.2 hPa16.1 kmNorth (360°)9.3 km/hOvercast
2:55 AM-8.1 °C-11.3 °C78 %1014.2 hPa16.1 kmNorth (10°)9.3 km/hMostly Cloudy
3:15 AM-8.3 °C-11.5 °C78 %1014.2 hPa16.1 kmNorth (360°)13 km/hScattered Clouds
3:35 AM-8.4 °C-11.3 °C80 %1014.6 hPa16.1 kmNorth (360°)13 km/hMostly Cloudy
3:55 AM-8.5 °C-11.4 °C80 %1014.9 hPa16.1 kmNorth (350°)11.1 km/hMostly Cloudy
4:15 AM-8.6 °C-11.2 °C82 %1014.9 hPa16.1 kmNNW (340°)11.1 km/hOvercast
4:35 AM-8.5 °C-11.4 °C80 %1015.2 hPa16.1 kmNorth (350°)22.2 km/hOvercast
4:55 AM-8.3 °C-12 °C75 %1015.6 hPa16.1 kmNNW (340°)22.2 km/hOvercast
5:15 AM-8.5 °C-12 °C76 %1015.9 hPa16.1 kmNNW (340°)13 km/hOvercast
5:35 AM-9.3 °C-13.8 °C70 %1016.9 hPa16.1 kmNNW (340°)25.9 km/hMostly Cloudy
5:55 AM-10 °C-14 °C73 %1017.3 hPa16.1 kmNorth (350°)18.5 km/hMostly Cloudy
6:15 AM-10.3 °C-14.6 °C71 %1017.3 hPa16.1 kmNorth (350°)27.8 km/h35.2 km/hScattered Clouds
6:35 AM-10 °C-14 °C73 %1017.6 hPa16.1 kmNorth (350°)14.8 km/hMostly Cloudy
6:55 AM-10.3 °C-14.5 °C72 %1017.9 hPa16.1 kmNNW (330°)13 km/hOvercast
7:15 AM-10.3 °C-14.5 °C72 %1018.3 hPa16.1 kmNNW (330°)14.8 km/hOvercast
7:35 AM-10.6 °C-14.6 °C73 %1018.6 hPa16.1 kmNNW (330°)16.7 km/hOvercast
7:55 AM-10.7 °C-14.6 °C74 %1018.6 hPa16.1 kmNNW (330°)13 km/hOvercast
8:15 AM-10.6 °C-14.5 °C74 %1019.3 hPa16.1 kmNNW (330°)16.7 km/hOvercast
8:35 AM-10.3 °C-14.1 °C74 %1019.6 hPa16.1 kmNW (320°)20.4 km/hOvercast
8:55 AM-10 °C-13.9 °C74 %1020 hPa16.1 kmNNW (330°)22.2 km/hOvercast
9:15 AM-9.7 °C-13.8 °C73 %1021 hPa16.1 kmNNW (340°)31.5 km/h37 km/hOvercast
9:35 AM-9.9 °C-14.2 °C71 %1021.3 hPa11.3 kmNNW (330°)40.7 km/hOvercast
9:55 AM-9.8 °C-14 °C72 %1022 hPa16.1 kmNNW (330°)31.5 km/h44.4 km/hOvercast
10:15 AM-9.7 °C-14.6 °C68 %1022.7 hPa16.1 kmNNW (330°)38.9 km/h44.4 km/hOvercast
10:35 AM-9.9 °C-15.6 °C64 %1023 hPa8 kmNNW (330°)37 km/h51.8 km/hHaze
10:55 AM-10.6 °C-16.3 °C64 %1024 hPa8 kmNNW (340°)44.4 km/h53.8 km/hHaze
11:15 AM-10.3 °C-15.8 °C65 %1024.4 hPa11.3 kmNNW (330°)40.7 km/h46.3 km/hScattered Clouds
11:35 AM-10.8 °C-16.6 °C63 %1024.7 hPa8 kmNNW (340°)35.2 km/hHaze
11:55 AM-10.7 °C-16.6 °C63 %1025.1 hPa4.8 kmNNW (330°)44.4 km/hHaze
12:15 PM-11.1 °C-17.3 °C61 %1025.1 hPa8 kmNW (320°)42.6 km/hHaze
12:35 PM-10.7 °C-17 °C61 %1025.4 hPa8 kmNNW (330°)42.6 km/h50.1 km/hHaze
12:55 PM-10.5 °C-17 °C60 %1025.7 hPa11.3 kmNNW (330°)38.9 km/h48.1 km/hClear
1:15 PM-10.5 °C-16.9 °C60 %1025.7 hPa11.3 kmNW (320°)31.5 km/h37 km/hClear
1:35 PM-10.3 °C-17.2 °C58 %1025.7 hPa11.3 kmNNW (330°)37 km/hClear
1:55 PM-10.3 °C-17.3 °C57 %1025.7 hPa16.1 kmNNW (340°)31.5 km/h40.7 km/hClear
2:15 PM-10.1 °C-16.9 °C58 %1025.7 hPa16.1 kmNNW (330°)29.6 km/h37 km/hClear
2:35 PM-10 °C-17.1 °C57 %1026.1 hPa16.1 kmNNW (330°)33.3 km/hClear
2:55 PM-9.8 °C-16.9 °C57 %1026.1 hPa16.1 kmNNW (340°)29.6 km/h37 km/hClear
3:15 PM-9.8 °C-17.1 °C56 %1026.1 hPa16.1 kmNNW (340°)29.6 km/hClear
3:35 PM-9.9 °C-17.3 °C56 %1026.4 hPa16.1 kmNNW (330°)27.8 km/hClear
3:55 PM-9.9 °C-17.6 °C54 %1026.8 hPa16.1 kmNNW (330°)29.6 km/h38.9 km/hClear
4:15 PM-10 °C-18 °C53 %1026.8 hPa16.1 kmNNW (340°)27.8 km/h33.3 km/hClear
4:35 PM-10.2 °C-18.2 °C53 %1027.1 hPa16.1 kmNNW (330°)22.2 km/hClear
4:55 PM-10.6 °C-18.6 °C53 %1027.1 hPa16.1 kmNNW (340°)22.2 km/hClear
5:15 PM-11.2 °C-18.5 °C56 %1027.1 hPa16.1 kmNNW (340°)18.5 km/hClear
5:35 PM-12 °C-18.7 °C58 %1027.1 hPa16.1 kmNNW (340°)14.8 km/hClear
5:55 PM-13.1 °C-19.3 °C61 %1027.4 hPa16.1 kmNNW (340°)11.1 km/hClear
6:15 PM-14.7 °C-19.8 °C66 %1027.4 hPa16.1 kmNorth (350°)14.8 km/hClear
6:35 PM-15.2 °C-20.3 °C66 %1027.4 hPa16.1 kmNNW (340°)9.3 km/hClear
6:55 PM-15.8 °C-20.6 °C67 %1027.8 hPa16.1 kmNNW (340°)7.4 km/hClear
7:15 PM-16.7 °C-21.2 °C69 %1028.1 hPa16.1 kmNW (310°)5.6 km/hClear
7:35 PM-15.7 °C-20.9 °C65 %1028.1 hPa16.1 kmNW (320°)7.4 km/hClear
7:55 PM-16.5 °C-20.6 °C71 %1028.4 hPa16.1 kmNW (310°)5.6 km/hClear
8:15 PM-17.5 °C-21.7 °C70 %1028.4 hPa16.1 kmNW (310°)5.6 km/hClear
8:35 PM-15.7 °C-21.1 °C64 %1028.4 hPa16.1 kmNW (320°)9.3 km/hClear
8:55 PM-16.4 °C-21.1 °C68 %1028.8 hPa16.1 kmCalmClear
9:15 PM-18 °C-21.9 °C72 %1029.5 hPa16.1 kmWSW (240°)9.3 km/hClear
9:35 PM-18 °C-21.1 °C77 %1029.8 hPa16.1 kmWNW (300°)5.6 km/hClear
9:55 PM-18 °C-21.6 °C74 %1030.1 hPa16.1 kmNW (320°)9.3 km/hClear
10:15 PM-20.1 °C-23.2 °C77 %1030.1 hPa16.1 kmWest (280°)5.6 km/hClear
10:35 PM-19.3 °C-22.5 °C76 %1030.1 hPa16.1 kmCalmClear
10:55 PM-17.9 °C-21 °C77 %1030.1 hPa16.1 kmWSW (240°)5.6 km/hClear
11:15 PM-17.7 °C-21.4 °C74 %1030.1 hPa16.1 kmWSW (250°)9.3 km/hScattered Clouds
11:35 PM-17.1 °C-20.8 °C74 %1030.1 hPa16.1 kmSW (220°)7.4 km/hOvercast
11:55 PM-17 °C-20 °C78 %1030.5 hPa16.1 kmCalmOvercast
Hourly data recorded from KBIE, located 0 kilometers away from Sterling, Nebraska







STORIES FROM OUR PARTNERS